sat.trackr.live / text

‹ back to catalog

STARLINK-32710

NORAD 62604 · 2025-008T

PAYLOAD ACTIVE UNKNOWN

§ Identity

Operator
Country
US
Launch date
2025-01-13
Launch site
AFETR
Launch vehicle
Mass (kg)
RCS (m²)

Purposes: comms

External: N2YO · Heavens-Above · Gunter

§ Orbital elements

Epoch: 2026-05-25T03:52:44.317056Z

Period
94.27 min
Inclination
43.0018°
Eccentricity
0.0001907
Mean motion
15.27586561 rev/d
Perigee alt
481.7 km
Apogee alt
484.3 km
Semi-major
6,861.2 km
B*
3.6822e-4
RAAN
205.7150°
Arg perigee
273.3647°
Mean anomaly
86.6986°
Rev number
7,726

§ Raw data

STARLINK-327101 62604U 25008T   26145.16162404  .00009886  00000+0  36822-3 0  99992 62604  43.0018 205.7150 0001907 273.3647  86.6986 15.27586561 77266

JSON: /api/v1/satellites/62604 · /tle

For live sub-satellite position, see the globe view (requires WebGL).

§ Visibility from observer

Set your observer location to see the next 7 days of passes ≥ 10°. The values pass through the URL so the page stays shareable.

No JS? Fill the form by hand. The geolocation button needs JavaScript.